Precipitable_Water
1.62 1.71 1.73 1.79 1.92 1.74 1.65 1.62 1.56 1.41 1.27 1.17 1.08 1.01 1.03 1.14 1.25 1.30 1.35 1.40 1.57 1.54 1.41 1.35 1.23 1.07 1.03 0.96 0.94 1.12 1.10 1.08 1.21 1.16 1.07 1.04 1.10 1.02 0.99 1.01 1.21 1.34 1.45
1.65 1.76 1.75 1.75 1.83 1.92 1.72 1.66 1.57 1.47 1.29 1.13 1.04 0.99 1.04 1.34 1.44 1.40 1.59 1.91 1.58 1.46 1.39 1.30 1.22 1.12 0.96 0.99 1.02 1.06 1.03 0.98 0.98 1.02 1.05 1.10 1.04 0.98 1.00 1.04 1.19 1.30 1.32
1.57 1.77 1.83 1.75 1.74 1.79 1.80 1.70 1.59 1.54 1.37 1.17 1.06 1.08 1.15 1.41 1.47 1.56 1.79 1.91 1.61 1.50 1.37 1.15 1.02 0.91 0.93 0.98 0.99 1.02 1.04 1.02 0.95 0.97 1.14 1.17 1.04 1.06 1.04 1.04 1.08 1.20 1.27
1.54 1.69 1.80 1.81 1.76 1.73 1.76 1.72 1.62 1.57 1.47 1.24 1.21 1.35 1.44 1.55 1.44 1.53 1.69 1.93 1.64 1.47 1.19 1.00 0.94 0.92 0.94 0.94 0.95 1.00 1.05 0.98 0.94 1.11 1.19 1.16 1.05 1.06 1.11 1.05 1.06 1.13 1.24
1.52 1.65 1.75 1.79 1.77 1.78 1.74 1.74 1.67 1.62 1.49 1.38 1.19 1.36 1.46 1.61 1.56 1.55 1.71 1.86 1.57 1.30 1.09 1.03 0.95 0.95 0.96 0.93 0.91 0.90 0.92 0.94 0.93 1.14 1.27 1.15 1.10 1.06 1.09 1.09 1.07 1.07 1.12
1.48 1.64 1.73 1.74 1.74 1.77 1.77 1.74 1.72 1.69 1.57 1.48 1.28 1.29 1.42 1.58 1.55 1.62 1.70 1.67 1.42 1.24 1.09 1.04 1.02 0.98 0.96 0.95 0.90 0.89 0.94 0.97 0.97 1.02 1.10 1.10 1.10 1.09 1.09 1.10 1.09 1.08 1.10
1.47 1.68 1.75 1.78 1.80 1.78 1.85 1.80 1.79 1.74 1.72 1.62 1.50 1.25 1.40 1.59 1.64 1.63 1.62 1.52 1.42 1.29 1.17 1.08 1.04 0.99 0.98 0.98 0.93 0.93 0.96 0.99 1.00 1.10 1.12 1.13 1.31 1.16 1.08 1.09 1.11 1.14 1.11
1.40 1.53 1.64 1.65 1.70 1.77 1.78 1.78 1.80 1.83 1.81 1.73 1.65 1.47 1.38 1.51 1.62 1.72 1.57 1.54 1.48 1.41 1.31 1.18 1.09 1.05 0.99 0.98 0.95 1.02 1.00 0.96 0.98 0.98 1.06 1.10 1.16 1.26 1.11 1.07 1.08 1.09 1.11
1.30 1.42 1.51 1.54 1.59 1.71 1.78 1.79 1.74 1.75 1.74 1.78 1.79 1.61 1.47 1.45 1.55 1.61 1.59 1.56 1.55 1.52 1.43 1.27 1.13 1.09 1.05 1.01 0.96 1.00 1.03 1.02 0.98 0.95 0.96 1.01 1.07 1.19 1.16 1.08 1.06 1.07 1.08
1.00 1.12 1.22 1.36 1.48 1.54 1.56 1.68 1.71 1.70 1.71 1.74 1.79 1.78 1.62 1.50 1.50 1.55 1.58 1.56 1.58 1.59 1.55 1.41 1.22 1.12 1.10 1.07 1.00 0.98 1.04 1.04 0.99 0.97 0.96 0.97 0.99 1.08 1.11 1.09 1.06 1.06 1.06
0.74 0.81 0.89 0.98 1.06 1.18 1.29 1.35 1.44 1.58 1.63 1.68 1.73 1.78 1.81 1.67 1.58 1.55 1.58 1.60 1.57 1.61 1.64 1.58 1.42 1.23 1.16 1.16 1.11 1.02 1.02 1.05 1.02 0.97 0.95 0.96 1.02 1.07 1.06 1.05 1.06 1.06 1.07
0.52 0.61 0.68 0.74 0.83 0.91 0.92 1.01 1.13 1.28 1.51 1.63 1.69 1.74 1.79 1.82 1.69 1.60 1.57 1.57 1.60 1.59 1.61 1.64 1.57 1.44 1.25 1.18 1.17 1.10 1.04 1.02 1.04 1.03 1.01 1.01 1.04 1.07 1.07 1.05 1.04 1.05 1.05
0.44 0.44 0.44 0.47 0.51 0.59 0.70 0.75 0.82 0.96 1.08 1.39 1.57 1.67 1.74 1.78 1.83 1.70 1.63 1.60 1.60 1.62 1.60 1.59 1.63 1.58 1.43 1.25 1.15 1.11 1.08 1.05 1.01 1.05 1.06 1.04 1.03 1.07 1.10 1.07 1.04 1.03 1.03
0.35 0.37 0.41 0.41 0.41 0.42 0.44 0.46 0.59 0.72 0.84 0.92 1.15 1.45 1.63 1.68 1.69 1.70 1.69 1.68 1.64 1.63 1.62 1.63 1.56 1.60 1.56 1.45 1.23 1.12 1.07 1.07 1.06 1.03 1.06 1.09 1.09 1.11 1.12 1.13 1.06 1.04 1.03
0.29 0.30 0.31 0.32 0.32 0.32 0.33 0.36 0.37 0.41 0.54 0.66 0.79 0.93 1.20 1.49 1.59 1.65 1.66 1.68 1.69 1.69 1.63 1.64 1.64 1.55 1.56 1.56 1.45 1.25 1.13 1.09 1.08 1.07 1.06 1.09 1.12 1.13 1.16 1.15 1.16 1.09 1.06
0.29 0.30 0.32 0.32 0.32 0.32 0.31 0.32 0.34 0.35 0.37 0.42 0.52 0.64 0.77 0.98 1.14 1.43 1.58 1.60 1.60 1.66 1.69 1.67 1.66 1.65 1.57 1.56 1.56 1.49 1.30 1.25 1.15 1.09 1.08 1.09 1.11 1.15 1.16 1.17 1.18 1.18 1.15
0.33 0.34 0.34 0.35 0.36 0.33 0.31 0.32 0.33 0.36 0.39 0.39 0.40 0.45 0.53 0.60 0.71 0.94 1.18 1.44 1.53 1.59 1.61 1.64 1.66 1.71 1.67 1.65 1.55 1.60 1.55 1.43 1.34 1.19 1.09 1.08 1.10 1.12 1.16 1.19 1.21 1.20 1.19
0.36 0.35 0.37 0.38 0.38 0.38 0.37 0.36 0.36 0.37 0.39 0.40 0.42 0.43 0.44 0.48 0.53 0.58 0.69 0.94 1.30 1.53 1.55 1.53 1.52 1.50 1.56 1.62 1.63 1.64 1.68 1.65 1.57 1.40 1.30 1.14 1.09 1.11 1.12 1.17 1.20 1.22 1.23
0.42 0.42 0.42 0.43 0.43 0.43 0.43 0.44 0.43 0.43 0.43 0.43 0.43 0.43 0.44 0.44 0.45 0.47 0.52 0.60 0.80 1.10 1.37 1.50 1.50 1.45 1.36 1.45 1.56 1.63 1.70 1.72 1.71 1.62 1.46 1.38 1.25 1.14 1.12 1.16 1.17 1.20 1.20
0.49 0.50 0.50 0.50 0.51 0.51 0.52 0.51 0.49 0.48 0.48 0.49 0.48 0.47 0.46 0.46 0.47 0.46 0.46 0.47 0.51 0.61 0.87 1.21 1.36 1.46 1.43 1.36 1.41 1.52 1.68 1.75 1.78 1.71 1.64 1.52 1.44 1.36 1.27 1.24 1.22 1.21 1.20
0.53 0.54 0.55 0.55 0.57 0.57 0.55 0.52 0.51 0.50 0.52 0.53 0.54 0.53 0.51 0.50 0.50 0.49 0.49 0.48 0.47 0.46 0.46 0.65 1.02 1.22 1.33 1.44 1.32 1.27 1.45 1.67 1.75 1.68 1.76 1.65 1.55 1.46 1.44 1.41 1.28 1.26 1.23
0.56 0.59 0.61 0.62 0.64 0.65 0.64 0.63 0.60 0.57 0.55 0.55 0.56 0.56 0.57 0.56 0.54 0.52 0.51 0.50 0.50 0.47 0.47 0.48 0.53 0.77 1.05 1.28 1.20 1.17 1.00 1.19 1.45 1.59 1.66 1.65 1.57 1.58 1.59 1.60 1.50 1.41 1.31
0.59 0.61 0.63 0.66 0.67 0.68 0.69 0.67 0.66 0.66 0.66 0.63 0.61 0.57 0.56 0.58 0.59 0.59 0.58 0.55 0.53 0.52 0.48 0.48 0.47 0.50 0.61 0.93 1.09 1.14 0.96 0.89 1.11 1.33 1.45 1.56 1.61 1.53 1.48 1.53 1.68 1.61 1.51
0.60 0.65 0.67 0.68 0.64 0.67 0.72 0.69 0.67 0.65 0.63 0.69 0.73 0.76 0.71 0.62 0.60 0.62 0.62 0.62 0.59 0.56 0.52 0.51 0.53 0.54 0.55 0.57 0.85 0.98 1.06 1.21 0.96 0.96 1.22 1.28 1.39 1.39 1.41 1.45 1.46 1.55 1.68
0.56 0.55 0.61 0.62 0.60 0.60 0.63 0.69 0.73 0.74 0.77 0.78 0.80 0.82 0.85 0.85 0.75 0.66 0.64 0.62 0.61 0.60 0.58 0.55 0.52 0.51 0.54 0.54 0.63 0.77 0.84 0.92 0.98 0.97 0.94 1.09 1.20 1.30 1.35 1.41 1.44 1.43 1.48
0.49 0.48 0.47 0.48 0.51 0.57 0.62 0.68 0.76 0.74 0.70 0.69 0.75 0.79 0.84 0.90 0.91 0.85 0.73 0.65 0.63 0.61 0.59 0.59 0.58 0.55 0.52 0.54 0.59 0.67 0.77 0.76 0.78 0.83 0.82 0.86 1.02 1.13 1.26 1.34 1.39 1.49 1.53
Wind_Speed
2 3 3 3 3 1 0 0 1 2 2 2 2 3 3 4 4 4 4 5 5 5 5 5 5 4 4 4 5 6 6 6 7 7 7 7 8 9 9 9 10 12 12
2 3 4 3 3 2 1 1 1 2 1 1 1 1 2 2 3 3 3 4 4 4 4 4 3 3 3 3 4 4 4 5 4 5 6 6 6 7 8 8 9 10 10
2 3 4 4 3 3 2 1 1 2 2 1 0 0 0 0 1 1 2 3 2 2 3 3 3 2 2 2 2 3 3 3 4 4 4 4 5 5 6 7 7 8 9
3 3 5 6 5 4 3 2 2 2 2 2 2 2 2 3 2 2 2 4 1 1 3 3 2 1 1 1 1 1 2 2 2 2 2 3 3 3 4 5 6 6 7
4 4 5 6 6 5 4 4 3 3 3 3 3 3 4 3 4 4 4 5 2 2 2 2 2 1 0 1 1 2 2 2 2 2 2 1 1 1 2 3 4 4 5
5 5 5 6 7 7 6 6 5 5 5 4 4 4 4 4 4 3 4 4 4 3 3 3 2 2 2 2 3 3 4 3 3 3 3 2 1 1 1 2 3 3 4
5 5 6 7 7 7 7 8 7 7 6 6 5 5 5 5 5 5 6 6 6 5 5 4 4 4 3 3 3 4 5 5 5 5 4 4 4 2 2 2 2 3 3
6 7 7 7 8 9 9 9 10 9 8 8 8 7 7 7 7 7 7 8 8 8 7 7 6 6 5 5 5 5 6 6 7 7 7 6 6 5 4 4 3 3 3
7 8 9 9 10 10 10 11 12 12 12 12 11 10 10 10 10 9 10 10 10 9 9 9 9 9 8 8 7 7 8 8 8 8 8 8 8 7 6 6 5 5 4
10 10 10 11 12 12 13 13 14 15 15 15 14 13 13 13 13 12 12 12 11 11 11 10 11 11 11 11 10 10 10 10 10 10 10 10 10 9 9 8 7 6 6
13 13 14 14 15 15 16 17 17 17 18 18 18 17 16 16 15 15 15 15 14 14 13 12 12 11 11 12 12 13 13 13 12 12 11 11 11 11 10 9 9 8 7
16 17 17 18 19 19 20 20 20 20 20 20 20 20 20 19 19 18 18 18 17 17 16 15 15 14 14 14 14 14 15 15 15 14 14 13 13 13 12 11 11 10 10
20 20 20 21 21 22 23 23 23 23 22 22 23 23 23 22 22 21 21 20 20 20 19 19 18 17 16 16 16 15 16 16 16 17 17 16 15 14 14 13 13 12 12
19 20 20 21 22 22 23 24 25 25 26 26 26 26 26 25 25 25 24 24 23 23 22 22 21 20 20 19 18 17 17 18 19 19 18 18 18 17 16 15 15 14 14
20 21 22 23 23 24 24 25 25 26 26 27 28 28 29 29 28 28 28 28 27 26 26 25 25 24 23 22 20 20 19 19 20 21 21 20 20 20 19 18 17 16 16
23 24 24 25 26 27 27 27 27 28 28 29 29 30 31 32 32 32 31 31 31 30 30 29 28 27 26 25 25 23 22 21 22 22 23 22 22 22 21 20 19 19 18
24 25 26 27 28 29 30 31 31 31 31 31 32 32 33 33 33 34 34 34 34 33 33 32 32 31 30 29 28 28 26 25 24 24 24 24 24 24 24 24 22 22 21
28 29 29 30 31 32 32 33 34 35 35 35 36 35 36 36 36 36 36 35 36 35 36 35 34 34 33 33 32 31 30 29 27 26 26 26 26 25 25 26 25 24 23
30 31 32 33 34 35 36 36 37 38 39 39 39 39 39 39 39 39 39 39 38 38 37 37 37 36 36 35 35 35 34 32 31 29 28 27 27 26 26 26 26 26 25
31 32 34 35 36 38 39 40 41 41 42 42 42 43 43 42 42 42 42 42 42 41 40 39 39 38 38 37 36 36 36 36 35 34 31 30 29 28 27 27 27 27 27
33 34 36 37 38 40 41 43 43 44 45 45 46 46 46 46 46 46 45 44 44 44 43 42 41 40 39 38 38 37 38 38 33 36 34 31 29 29 29 29 29 29 28
34 34 35 36 37 38 39 41 43 45 47 48 49 50 50 50 49 49 48 47 46 45 45 45 44 43 41 40 38 38 36 37 37 36 33 33 32 30 30 31 32 32 31
32 33 34 34 36 37 39 40 42 45 47 48 50 51 51 51 51 51 50 49 49 48 47 46 45 45 44 42 42 39 36 36 33 35 35 34 33 33 34 34 32 34 34
30 31 32 34 35 37 39 41 43 45 47 48 50 51 53 54 54 53 52 51 51 50 49 48 47 46 46 44 43 44 44 39 36 35 35 35 35 35 35 35 36 36 35
29 30 32 34 36 38 38 38 40 40 40 41 41 43 45 47 50 52 53 52 51 51 50 49 48 47 47 47 45 43 43 43 43 41 38 37 39 38 38 37 37 37 37
29 30 31 33 34 34 34 34 34 35 38 38 37 36 37 38 41 45 47 49 52 51 50 48 48 47 47 47 47 46 44 41 41 41 41 41 40 40 41 42 41 40 42
Wind_Direction
172 188 193 196 190 173 153 20 12 14 27 47 67 76 70 66 70 85 88 90 101 84 69 63 69 79 85 85 92 97 92 97 93 88 84 80 76 68 64 64 57 55 59
212 208 210 209 215 212 244 299 339 354 3 26 87 94 81 69 68 81 107 115 90 78 59 48 52 70 87 96 102 103 102 102 101 96 93 85 75 65 65 62 57 56 53
232 228 221 221 222 227 244 290 310 338 333 309 227 201 211 22 47 84 123 150 101 62 34 22 28 53 96 108 114 121 116 113 110 114 103 88 78 70 63 59 54 51 50
259 247 237 227 230 242 250 264 290 300 323 296 260 255 270 273 267 255 230 184 168 1 2 10 24 49 95 125 142 160 155 145 136 131 125 108 80 69 63 53 49 54 49
262 258 243 232 237 245 252 259 280 279 296 302 276 269 279 273 257 266 230 199 238 304 331 348 359 5 298 268 255 231 213 206 197 181 148 144 82 58 48 41 42 42 42
259 257 244 240 243 251 256 257 271 273 280 290 286 275 281 271 263 246 208 225 254 277 293 306 306 296 291 281 271 248 230 227 218 221 235 248 241 298 357 6 20 23 27
258 257 253 251 251 257 260 261 265 273 271 281 287 275 274 269 263 248 243 252 259 266 274 279 282 281 278 278 278 256 245 241 241 244 244 245 245 264 280 310 332 348 358
260 259 259 260 261 262 263 264 265 270 271 273 277 276 271 269 264 257 259 261 262 265 268 269 271 271 271 273 276 264 252 250 253 252 251 252 254 256 271 281 296 309 321
264 262 263 266 266 267 267 269 269 269 270 271 272 272 270 268 264 262 264 264 264 266 267 267 268 267 266 268 271 270 257 258 261 255 253 253 255 258 264 273 279 290 300
264 268 270 269 269 269 270 271 272 271 270 270 270 270 268 266 264 265 265 265 265 265 267 268 268 266 265 266 267 268 262 261 261 257 255 257 255 257 262 267 272 278 286
267 270 271 271 272 272 272 273 273 272 270 269 268 268 268 266 265 265 264 264 264 264 264 266 268 267 266 268 268 265 263 261 260 258 257 257 255 257 260 263 266 270 277
271 272 272 272 272 272 272 273 273 273 270 268 267 266 266 265 264 265 264 263 263 263 263 264 265 266 268 269 270 268 265 262 259 257 258 256 256 257 259 261 263 267 272
271 272 273 274 274 273 273 272 271 271 270 269 267 265 264 264 264 264 264 263 262 262 263 263 263 263 267 267 268 269 266 262 260 257 257 257 257 257 257 259 262 265 269
274 274 275 275 275 275 274 273 272 271 269 268 267 266 264 264 263 262 262 262 262 261 261 261 261 262 265 265 266 268 269 265 260 258 258 257 256 256 257 259 261 264 267
275 277 276 277 277 276 276 275 274 272 271 270 268 266 265 265 264 263 262 261 261 261 261 261 261 261 262 262 262 266 269 268 262 258 257 258 255 256 257 258 260 263 265
278 279 279 279 278 277 276 275 274 273 272 271 269 268 267 265 264 264 262 261 260 260 260 260 260 260 261 260 261 264 267 268 264 260 258 257 257 256 256 257 260 262 264
279 280 281 280 280 279 277 275 274 273 272 271 270 269 267 266 265 264 263 262 260 260 259 259 259 260 260 260 260 261 264 265 263 260 258 257 257 257 256 257 259 261 263
279 280 280 281 281 280 279 277 275 273 272 271 270 269 268 267 265 264 263 262 260 260 259 259 258 259 259 259 260 261 262 262 262 260 259 258 257 257 257 256 258 260 262
281 282 281 282 281 280 279 277 276 274 272 271 270 268 267 266 265 264 263 262 261 260 259 258 258 258 258 259 259 260 261 260 259 259 259 257 256 257 257 257 257 258 260
283 283 283 283 282 281 280 278 276 275 273 272 270 268 267 266 265 264 263 261 260 259 258 258 258 258 258 258 259 260 260 260 260 255 256 257 255 255 257 257 257 258 259
284 285 285 285 285 284 282 280 277 276 275 273 271 269 268 266 265 264 262 261 260 258 257 256 257 257 257 257 259 260 260 261 261 255 252 253 254 255 257 257 258 259 260
286 288 288 288 288 287 285 283 280 278 276 274 272 270 268 266 264 263 262 261 259 258 257 256 255 256 256 255 257 259 260 260 260 263 257 255 254 256 258 258 259 259 259
289 290 290 291 292 291 289 288 286 283 281 278 274 270 267 265 263 262 261 260 258 257 256 256 255 254 255 255 253 256 259 259 262 261 260 259 258 257 259 259 262 259 260
292 293 293 294 295 295 294 292 291 288 284 281 277 272 268 264 262 261 260 259 258 257 255 255 255 254 254 254 254 254 255 260 260 260 261 261 261 260 261 261 261 261 263
295 296 296 296 297 298 298 297 297 293 290 287 282 275 270 265 261 260 259 258 257 256 255 254 254 253 253 253 254 254 255 257 258 260 262 261 261 261 261 261 262 262 261
297 299 301 301 301 301 302 302 303 300 296 291 285 280 275 270 265 262 261 259 256 254 253 253 253 252 252 253 253 254 254 256 258 259 260 262 262 262 262 261 262 264 263